Location: North Evanston
(42.0634°N, 87.6976°W)
Time: 20:12:55
(UTC+00:00)

Transit 2A - Pass Details

Date: 17 May 2026
Orbit: 595 x 948 km, 66.7° (Epoch: 9 June)

Event Time Altitude Azimuth Distance (km) Brightness Sun altitude
Rises 20:46:37 0° 206° (SSW) 3,593 9.9 46.0°
Reaches altitude 10° 20:49:12 10° 205° (SSW) 2,636 9.3 45.6°
Maximum altitude 20:55:24 83° 119° (ESE) 910 7.1 44.5°
Drops below altitude 10° 21:01:12 10° 32° (NNE) 2,477 8.4 43.4°
Sets 21:03:34 0° 32° (NNE) 3,365 9.0 43.0°
